Time,TemperatureF,DewpointF,PressureIn,WindDirection,WindDirectionDegrees,WindSpeedMPH,WindSpeedGustMPH,Humidity,HourlyPrecipIn,Conditions,Clouds,dailyrainin,SolarRadiationWatts/m^2,SoftwareType,DateUTC
2013-03-11 00:07:00,60.9,55.0,30.07,ESE,118,0.0,1.0,82,0.00,,,0.00,0,weatherlink.com 1.10,2013-03-11 04:07:00,
2013-03-11 00:24:00,60.7,55.0,30.06,ESE,118,0.0,1.0,81,0.00,,,0.00,0,weatherlink.com 1.10,2013-03-11 04:24:00,
2013-03-11 00:37:00,60.7,55.0,30.06,ESE,118,0.0,1.0,81,0.00,,,0.00,0,weatherlink.com 1.10,2013-03-11 04:37:00,
2013-03-11 00:54:00,60.4,55.0,30.06,ESE,118,0.0,1.0,81,0.00,,,0.00,0,weatherlink.com 1.10,2013-03-11 04:54:00,
2013-03-11 01:08:00,60.1,55.0,30.06,ESE,118,0.0,0.0,82,0.00,,,0.00,0,weatherlink.com 1.10,2013-03-11 05:08:00,
2013-03-11 01:23:00,59.6,54.0,30.05,ESE,118,0.0,1.0,83,0.00,,,0.00,0,weatherlink.com 1.10,2013-03-11 05:23:00,
2013-03-11 01:39:00,59.5,54.0,30.04,ESE,118,0.0,2.0,83,0.00,,,0.00,0,weatherlink.com 1.10,2013-03-11 05:39:00,
2013-03-11 01:54:00,59.2,54.0,30.04,ESE,118,0.0,0.0,84,0.00,,,0.00,0,weatherlink.com 1.10,2013-03-11 05:54:00,
2013-03-11 02:09:00,58.4,53.0,30.04,ESE,118,0.0,0.0,83,0.00,,,0.00,0,weatherlink.com 1.10,2013-03-11 06:09:00,
2013-03-11 02:23:00,57.6,53.0,30.04,ESE,118,0.0,0.0,84,0.00,,,0.00,0,weatherlink.com 1.10,2013-03-11 06:23:00,
2013-03-11 02:38:00,57.0,52.0,30.04,ESE,118,0.0,0.0,84,0.00,,,0.00,0,weatherlink.com 1.10,2013-03-11 06:38:00,
2013-03-11 02:54:00,56.6,52.0,30.03,ESE,118,0.0,0.0,85,0.00,,,0.00,0,weatherlink.com 1.10,2013-03-11 06:54:00,
2013-03-11 03:09:00,56.0,52.0,30.03,ESE,118,0.0,0.0,85,0.00,,,0.00,0,weatherlink.com 1.10,2013-03-11 07:09:00,
2013-03-11 03:23:00,55.4,51.0,30.03,ESE,118,0.0,0.0,85,0.00,,,0.00,0,weatherlink.com 1.10,2013-03-11 07:23:00,
2013-03-11 03:40:00,54.8,51.0,30.02,ESE,118,0.0,0.0,86,0.00,,,0.00,0,weatherlink.com 1.10,2013-03-11 07:40:00,
2013-03-11 03:54:00,54.4,50.0,30.01,ESE,118,0.0,0.0,86,0.00,,,0.00,0,weatherlink.com 1.10,2013-03-11 07:54:00,
2013-03-11 04:09:00,53.9,50.0,30.01,ESE,118,0.0,0.0,86,0.00,,,0.00,0,weatherlink.com 1.10,2013-03-11 08:09:00,
2013-03-11 04:25:00,53.5,50.0,30.00,ESE,119,0.0,0.0,87,0.00,,,0.00,0,weatherlink.com 1.10,2013-03-11 08:25:00,
2013-03-11 04:40:00,53.2,50.0,29.99,ESE,118,0.0,0.0,87,0.00,,,0.00,0,weatherlink.com 1.10,2013-03-11 08:40:00,
2013-03-11 04:55:00,53.1,50.0,29.98,ESE,118,0.0,0.0,88,0.00,,,0.00,0,weatherlink.com 1.10,2013-03-11 08:55:00,
2013-03-11 05:10:00,53.1,50.0,29.97,ESE,118,0.0,0.0,88,0.00,,,0.00,0,weatherlink.com 1.10,2013-03-11 09:10:00,
2013-03-11 05:25:00,53.1,50.0,29.96,ESE,118,0.0,0.0,89,0.00,,,0.00,0,weatherlink.com 1.10,2013-03-11 09:25:00,
2013-03-11 05:40:00,53.1,50.0,29.96,ESE,118,0.0,0.0,89,0.00,,,0.00,0,weatherlink.com 1.10,2013-03-11 09:40:00,
2013-03-11 05:55:00,52.9,50.0,29.97,ESE,118,0.0,0.0,90,0.00,,,0.00,0,weatherlink.com 1.10,2013-03-11 09:55:00,
2013-03-11 06:10:00,52.8,50.0,29.98,ESE,118,0.0,0.0,90,0.00,,,0.00,0,weatherlink.com 1.10,2013-03-11 10:10:00,
2013-03-11 06:25:00,52.6,50.0,29.98,ESE,118,0.0,0.0,90,0.00,,,0.00,0,weatherlink.com 1.10,2013-03-11 10:25:00,
2013-03-11 06:40:00,52.3,50.0,29.98,ESE,118,0.0,0.0,90,0.00,,,0.00,0,weatherlink.com 1.10,2013-03-11 10:40:00,
2013-03-11 06:55:00,52.0,50.0,29.98,ESE,118,0.0,0.0,91,0.00,,,0.00,0,weatherlink.com 1.10,2013-03-11 10:55:00,
2013-03-11 07:10:00,51.7,49.0,29.98,ESE,118,0.0,0.0,91,0.00,,,0.00,0,weatherlink.com 1.10,2013-03-11 11:10:00,
2013-03-11 07:25:00,51.4,49.0,29.98,ESE,118,0.0,0.0,91,0.00,,,0.00,0,weatherlink.com 1.10,2013-03-11 11:25:00,
2013-03-11 07:41:00,51.4,49.0,29.97,ESE,118,0.0,0.0,91,0.00,,,0.00,0,weatherlink.com 1.10,2013-03-11 11:41:00,
2013-03-11 07:55:00,51.4,49.0,29.97,ESE,118,0.0,0.0,92,0.00,,,0.00,12,weatherlink.com 1.10,2013-03-11 11:55:00,
2013-03-11 08:10:00,51.6,49.0,29.98,ESE,118,0.0,0.0,92,0.00,,,0.00,25,weatherlink.com 1.10,2013-03-11 12:10:00,
2013-03-11 08:27:00,52.0,50.0,29.98,ESE,118,0.0,0.0,92,0.00,,,0.00,46,weatherlink.com 1.10,2013-03-11 12:27:00,
2013-03-11 08:42:00,53.3,52.0,29.98,ESE,118,0.0,0.0,94,0.00,,,0.00,139,weatherlink.com 1.10,2013-03-11 12:42:00,
2013-03-11 09:27:00,61.3,60.0,29.98,ESE,109,0.0,3.0,94,0.00,,,0.00,309,weatherlink.com 1.10,2013-03-11 13:27:00,
2013-03-11 09:42:00,62.9,61.0,29.98,SSE,157,0.0,3.0,92,0.00,,,0.00,350,weatherlink.com 1.10,2013-03-11 13:42:00,
2013-03-11 09:57:00,65.3,61.0,29.98,SE,142,0.0,3.0,85,0.00,,,0.00,415,weatherlink.com 1.10,2013-03-11 13:57:00,
2013-03-11 10:12:00,67.4,58.0,29.98,ESE,117,0.0,4.0,73,0.00,,,0.00,174,weatherlink.com 1.10,2013-03-11 14:12:00,
2013-03-11 10:42:00,70.4,55.0,29.99,SSW,206,0.0,4.0,59,0.00,,,0.00,246,weatherlink.com 1.10,2013-03-11 14:42:00,
2013-03-11 10:57:00,71.1,55.0,29.99,SE,124,0.0,6.0,58,0.00,,,0.00,262,weatherlink.com 1.10,2013-03-11 14:57:00,
2013-03-11 11:12:00,71.1,55.0,29.98,SSW,192,0.0,6.0,57,0.00,,,0.00,281,weatherlink.com 1.10,2013-03-11 15:12:00,
2013-03-11 11:27:00,71.6,55.0,29.98,ESE,120,0.0,7.0,57,0.00,,,0.00,367,weatherlink.com 1.10,2013-03-11 15:27:00,
2013-03-11 11:42:00,72.5,55.0,29.98,SE,142,3.0,7.0,55,0.00,,,0.00,316,weatherlink.com 1.10,2013-03-11 15:42:00,
2013-03-11 11:58:00,72.7,55.0,29.99,SSW,213,1.0,5.0,54,0.00,,,0.00,237,weatherlink.com 1.10,2013-03-11 15:58:00,
2013-03-11 12:13:00,72.8,55.0,29.99,SW,223,0.0,6.0,54,0.00,,,0.00,265,weatherlink.com 1.10,2013-03-11 16:13:00,
2013-03-11 12:28:00,73.5,55.0,29.98,South,171,2.0,6.0,53,0.00,,,0.00,306,weatherlink.com 1.10,2013-03-11 16:28:00,
2013-03-11 12:43:00,74.4,56.0,29.97,ESE,117,4.0,6.0,52,0.00,,,0.00,272,weatherlink.com 1.10,2013-03-11 16:43:00,
2013-03-11 12:58:00,74.7,56.0,29.97,ESE,113,0.0,5.0,52,0.00,,,0.00,330,weatherlink.com 1.10,2013-03-11 16:58:00,
2013-03-11 13:13:00,74.9,55.0,29.96,ESE,112,0.0,7.0,51,0.00,,,0.00,213,weatherlink.com 1.10,2013-03-11 17:13:00,
2013-03-11 13:28:00,75.1,56.0,29.96,South,187,0.0,5.0,51,0.00,,,0.00,272,weatherlink.com 1.10,2013-03-11 17:28:00,
2013-03-11 13:43:00,75.4,55.0,29.95,SE,145,0.0,4.0,50,0.00,,,0.00,220,weatherlink.com 1.10,2013-03-11 17:43:00,
2013-03-11 13:58:00,75.1,57.0,29.95,SE,130,0.0,5.0,53,0.00,,,0.00,257,weatherlink.com 1.10,2013-03-11 17:58:00,
2013-03-11 14:14:00,75.8,54.0,29.93,NNE,16,0.0,8.0,47,0.00,,,0.00,454,weatherlink.com 1.10,2013-03-11 18:14:00,
2013-03-11 14:28:00,76.5,56.0,29.92,SSE,164,0.0,8.0,50,0.00,,,0.00,508,weatherlink.com 1.10,2013-03-11 18:28:00,
2013-03-11 14:43:00,76.3,57.0,29.91,ESE,105,0.0,6.0,51,0.00,,,0.00,411,weatherlink.com 1.10,2013-03-11 18:43:00,
2013-03-11 14:58:00,76.3,55.0,29.89,SW,221,0.0,9.0,48,0.00,,,0.00,269,weatherlink.com 1.10,2013-03-11 18:58:00,
2013-03-11 15:15:00,76.5,54.0,29.89,SSW,213,0.0,9.0,46,0.00,,,0.00,330,weatherlink.com 1.10,2013-03-11 19:15:00,
2013-03-11 15:30:00,76.7,54.0,29.88,WSW,250,0.0,6.0,46,0.00,,,0.00,267,weatherlink.com 1.10,2013-03-11 19:30:00,
2013-03-11 15:45:00,76.5,55.0,29.87,SSW,200,2.0,8.0,47,0.00,,,0.00,251,weatherlink.com 1.10,2013-03-11 19:45:00,
2013-03-11 15:59:00,76.3,55.0,29.87,SSW,197,0.0,7.0,47,0.00,,,0.00,206,weatherlink.com 1.10,2013-03-11 19:59:00,
2013-03-11 16:15:00,75.8,55.0,29.87,South,186,0.0,4.0,48,0.00,,,0.00,216,weatherlink.com 1.10,2013-03-11 20:15:00,
2013-03-11 16:30:00,75.6,55.0,29.86,South,169,0.0,9.0,49,0.00,,,0.00,202,weatherlink.com 1.10,2013-03-11 20:30:00,
2013-03-11 16:45:00,75.6,55.0,29.85,SSE,161,0.0,5.0,49,0.00,,,0.00,220,weatherlink.com 1.10,2013-03-11 20:45:00,
2013-03-11 17:00:00,74.9,58.0,29.86,ESE,109,0.0,5.0,56,0.00,,,0.00,156,weatherlink.com 1.10,2013-03-11 21:00:00,
2013-03-11 17:15:00,74.0,58.0,29.86,East,98,3.0,3.0,58,0.00,,,0.00,88,weatherlink.com 1.10,2013-03-11 21:15:00,
2013-03-11 17:30:00,73.2,58.0,29.85,East,101,0.0,5.0,59,0.00,,,0.00,120,weatherlink.com 1.10,2013-03-11 21:30:00,
2013-03-11 17:45:00,72.8,58.0,29.85,NE,54,0.0,3.0,60,0.00,,,0.00,113,weatherlink.com 1.10,2013-03-11 21:45:00,
2013-03-11 18:00:00,72.5,58.0,29.85,ESE,117,0.0,7.0,60,0.00,,,0.00,62,weatherlink.com 1.10,2013-03-11 22:00:00,
2013-03-11 18:15:00,72.3,58.0,29.85,ESE,109,1.0,4.0,60,0.00,,,0.00,91,weatherlink.com 1.10,2013-03-11 22:15:00,
2013-03-11 18:30:00,72.0,58.0,29.84,ESE,103,1.0,4.0,61,0.00,,,0.00,58,weatherlink.com 1.10,2013-03-11 22:30:00,
2013-03-11 18:45:00,71.5,58.0,29.84,ESE,116,0.0,8.0,62,0.00,,,0.00,70,weatherlink.com 1.10,2013-03-11 22:45:00,
2013-03-11 19:00:00,71.1,58.0,29.83,ESE,121,2.0,7.0,63,0.00,,,0.00,26,weatherlink.com 1.10,2013-03-11 23:00:00,
2013-03-11 19:15:00,70.6,57.0,29.83,East,101,0.0,3.0,63,0.00,,,0.00,12,weatherlink.com 1.10,2013-03-11 23:15:00,
2013-03-11 19:31:00,70.1,57.0,29.83,ESE,119,0.0,3.0,64,0.00,,,0.00,0,weatherlink.com 1.10,2013-03-11 23:31:00,
2013-03-11 19:46:00,69.6,57.0,29.82,SE,131,0.0,3.0,64,0.00,,,0.00,0,weatherlink.com 1.10,2013-03-11 23:46:00,
2013-03-11 20:01:00,69.1,56.0,29.82,SE,128,0.0,4.0,64,0.00,,,0.00,0,weatherlink.com 1.10,2013-03-12 00:01:00,
2013-03-11 20:16:00,68.6,55.0,29.82,ESE,103,0.0,5.0,63,0.00,,,0.00,0,weatherlink.com 1.10,2013-03-12 00:16:00,
2013-03-11 20:31:00,68.4,55.0,29.82,ESE,114,0.0,4.0,63,0.00,,,0.00,0,weatherlink.com 1.10,2013-03-12 00:31:00,
2013-03-11 20:47:00,68.1,55.0,29.83,ENE,66,0.0,3.0,63,0.00,,,0.00,0,weatherlink.com 1.10,2013-03-12 00:47:00,
2013-03-11 21:00:00,68.1,55.0,29.83,ENE,75,0.0,3.0,64,0.00,,,0.00,0,weatherlink.com 1.10,2013-03-12 01:00:00,
2013-03-11 21:16:00,68.1,56.0,29.84,ESE,119,0.0,4.0,65,0.00,,,0.00,0,weatherlink.com 1.10,2013-03-12 01:16:00,
2013-03-11 21:31:00,68.1,57.0,29.84,WSW,248,0.0,4.0,67,0.00,,,0.00,0,weatherlink.com 1.10,2013-03-12 01:31:00,
2013-03-11 21:46:00,67.9,57.0,29.85,WSW,241,0.0,3.0,69,0.00,,,0.00,0,weatherlink.com 1.10,2013-03-12 01:46:00,
2013-03-11 22:02:00,67.8,58.0,29.86,SW,229,0.0,1.0,70,0.00,,,0.00,0,weatherlink.com 1.10,2013-03-12 02:02:00,
2013-03-11 22:17:00,67.6,58.0,29.87,West,264,0.0,5.0,71,0.00,,,0.00,0,weatherlink.com 1.10,2013-03-12 02:17:00,
2013-03-11 22:31:00,67.4,58.0,29.87,WSW,247,0.0,2.0,71,0.00,,,0.00,0,weatherlink.com 1.10,2013-03-12 02:31:00,
2013-03-11 22:47:00,67.3,58.0,29.87,WSW,254,0.0,3.0,71,0.00,,,0.00,0,weatherlink.com 1.10,2013-03-12 02:47:00,
2013-03-11 23:01:00,67.3,58.0,29.87,WSW,254,0.0,0.0,72,0.00,,,0.00,0,weatherlink.com 1.10,2013-03-12 03:01:00,
2013-03-11 23:16:00,67.1,58.0,29.86,WSW,254,0.0,0.0,73,0.00,,,0.00,0,weatherlink.com 1.10,2013-03-12 03:16:00,
2013-03-11 23:32:00,66.9,58.0,29.85,WSW,254,0.0,1.0,74,0.00,,,0.00,0,weatherlink.com 1.10,2013-03-12 03:32:00,
2013-03-11 23:46:00,66.8,59.0,29.84,WSW,254,0.0,1.0,75,0.00,,,0.00,0,weatherlink.com 1.10,2013-03-12 03:46:00,